GPS BIIRM-2 (PRN 31)

Last updated on Sun Apr 05 2026 00:03:20 GMT+0000 (Coordinated Universal Time)

1 29486U 06042A 26094.22327289 .00000030 00000+0 00000+0 0 9998 2 29486 54.6997 154.2762 0106286 53.1959 318.7314 2.00573948142915
UTC large
Height (km)
Speed (km/s)
/
Latitude / Longitude
Inclination (degrees)
Orbital Period (minutes)
Azimuth
Elevation
Range (km)
Doppler Factor

Next 0 passes for location: London (51.5072 / 0.1276)

Sorry there are no passes over London.